Location: Lourdes
(43.1000°N, 0.0500°W)
Time: 09:18:38
(UTC+00:00)

Cosmos 158 Rocket - Pass Details

Date: 30 November 2020
Orbit: 698 x 794 km, 74.0° (Epoch: 26 January)

Event Time Altitude Azimuth Distance (km) Brightness Sun altitude
Rises 17:55:06 0° 175° (S) 3,133 7.3 -15.7°
Reaches altitude 10° 17:57:36 10° 167° (SSE) 2,202 6.4 -16.2°
Maximum altitude 18:02:04 35° 102° (ESE) 1,146 4.4 -17.0°
Enters shadow 18:03:12 31° 74° (ENE) 1,239 4.5 -17.2°
